Regional Weather Roundup
Issued by NWS

Home | Current Version | Previous Version | Graphics & Text | Print | Product List | Glossary On
Versions: 1 2 3 4 5 6 7 8 9 10 11 12 13 14 15 16 17 18 19 20 21 22 23 24 25 26 27 28 29 30 31 32 33 34 35 36 37 38 39 40 41 42 43 44 45 46 47 48 49 50
000
ASUS43 KOAX 252310
RWRNE

WEATHER ROUNDUP FOR NEBRASKA
NATIONAL WEATHER SERVICE OMAHA NE
500 PM CST THU DEC 25 2014

NOTES: SATELLITE DATA IS BEING USED TO AUGMENT CLOUD COVER ABOVE
       12000 FEET.
       "FAIR" INDICATES FEW OR NO CLOUDS BELOW 12,000 FEET WITH NO
       SIGNIFICANT WEATHER AND/OR OBSTRUCTIONS TO VISIBILITY.

  * THESE STATIONS DO NOT REPORT WEATHER SUCH AS RAIN...SNOW OR FOG.

NEZ001>004-019>022-054>056-260000-
NEBRASKA PANHANDLE

CITY           SKY/WX    TMP DP  RH WIND       PRES   REMARKS
SCOTTSBLUFF    LGT SNOW  28  24  85 N16       29.69R FOG     WCI  16
ALLIANCE       LGT SNOW  26  24  92 N21G29    29.67R FOG     WCI  12
CHADRON        CLOUDY    26  22  84 NE17G29   29.79R FOG     WCI  13
KIMBALL        SNOW      26  24  91 N17G25    29.64R VSB 1/2 WCI  13
SIDNEY         SNOW      27  25  92 NE21      29.63R VSB 1/2 WCI  13
$$

NEZ057>060-069>072-079>082-260000-
SOUTHWEST NEBRASKA

CITY           SKY/WX    TMP DP  RH WIND       PRES   REMARKS
NORTH PLATTE   CLOUDY    32  25  75 N20G26    29.63R WCI  20
IMPERIAL       CLOUDY    32  25  75 N23       29.62R WCI  19
LEXINGTON      PTCLDY    38  26  63 CALM      29.59R
MCCOOK         CLEAR     38  23  55 N9        29.58R WCI  31
OGALLALA       CLOUDY    32  28  84 NE20G25   29.64R WCI  20
$$

NEZ005>010-023>029-035>040-094-260000-
NORTH CENTRAL NEBRASKA

CITY           SKY/WX    TMP DP  RH WIND       PRES   REMARKS
VALENTINE      LGT SNOW  29  26  89 N16G25    29.74R FOG     WCI  17
AINSWORTH      LGT SNOW  29  28  96 N18G26    29.71R VSB 1   WCI  16
BROKEN BOW     CLOUDY    32  26  78 N20G26    29.63R WCI  20
O`NEILL        CLOUDY    32  31  96 N16       29.68R WCI  21
ORD            MOCLDY    33  27  78 N14       29.62R WCI  23
THEDFORD       MIX PCPN  30  29  96 N21G28    29.69R WCI  17
$$

NEZ041-046>049-061>064-073>077-083>087-260000-
SOUTH CENTRAL NEBRASKA

CITY           SKY/WX    TMP DP  RH WIND       PRES   REMARKS
GRAND ISLAND   CLEAR     41  26  55 CALM      29.59R
AURORA         CLEAR     42  29  61 CALM      29.58R
HASTINGS       CLEAR     43  26  51 CALM      29.56R
HEBRON         PTCLDY    44  29  56 CALM      29.57R
HOLDREGE       CLEAR     39  27  61 N7        29.55S WCI  34
KEARNEY *      CLEAR     37  25  60 N8        29.58R WCI  31
YORK           CLEAR     43  30  61 CALM      29.59R
$$

NEZ011>018-030>034-042>045-260000-
NORTHEAST NEBRASKA

CITY           SKY/WX    TMP DP  RH WIND       PRES   REMARKS
NORFOLK        CLOUDY    39  32  76 N7        29.62R WCI  34
ALBION         CLOUDY    36  29  76 N7        29.62R WCI  30
BLAIR          CLEAR     46  33  60 SE5       29.62R
COLUMBUS *     CLEAR     43  28  56 CALM      29.62R
FREMONT        CLEAR     44  32  62 CALM      29.62R
TEKAMAH        CLEAR     42  35  76 E6        29.64R
WAYNE          CLEAR     36  32  84 NE5       29.65R WCI  32
$$

NEZ050>053-065>068-078-088>093-260000-
SOUTHEAST NEBRASKA

CITY           SKY/WX    TMP DP  RH WIND       PRES   REMARKS
LINCOLN        CLEAR     42  30  62 S8        29.61R
OMAHA EPPLEY   PTCLDY    46  33  60 S8        29.64R
BEATRICE       PTCLDY    46  32  58 S9        29.59S
FALLS CITY     MOCLDY    47  33  58 S14       29.63R
NEBRASKA CITY  PTCLDY    44  29  55 S6        29.63R
PLATTSMOUTH    PTCLDY    45  30  55 SE5       29.62R
$$

NEZ044-045-051>053-067-260000-
OMAHA AREA

CITY           SKY/WX    TMP DP  RH WIND       PRES   REMARKS
OMAHA EPPLEY   PTCLDY    46  33  60 S8        29.64R
BLAIR          CLEAR     46  33  60 SE5       29.62R
FREMONT        CLEAR     44  32  62 CALM      29.62R
MILLARD        CLEAR     47  32  55 SE3       29.62R
OFFUTT AFB     CLEAR     46  33  61 SE5       29.62R
PLATTSMOUTH    PTCLDY    45  30  55 SE5       29.62R
WAHOO          FAIR      43  32  64 CALM      29.62R
$$



USA.gov is the U.S. government's official web portal to all federal, state and local government web resources and services.